H1 CPF 2 NER 2025 12 12 9 346 01 glonass142 H2 2001801 9142 45358 2025 12 12 0 0 0 2025 12 15 23 45 0 900 1 1 0 0 0 1 H9 10 0 61021 0.00000 0 -12113032.754 -22243858.881 3137353.674 10 0 61021 900.00000 0 -11905003.060 -21688085.872 6275629.146 10 0 61021 1800.00000 0 -11425421.593 -20849731.049 9292220.900 10 0 61021 2700.00000 0 -10647757.613 -19779020.728 12128688.595 10 0 61021 3600.00000 0 -9556980.760 -18532399.926 14730108.943 10 0 61021 4500.00000 0 -8150441.623 -17170106.511 17046129.790 10 0 61021 5400.00000 0 -6438239.321 -15753608.690 19031934.343 10 0 61021 6300.00000 0 -4443060.278 -14343012.808 20649097.981 10 0 61021 7200.00000 0 -2199494.238 -12994549.206 21866322.173 10 0 61021 8100.00000 0 247145.070 -11758240.309 22660032.452 10 0 61021 9000.00000 0 2842446.922 -10675847.276 23014829.843 10 0 61021 9900.00000 0 5524912.301 -9779179.952 22923787.674 10 0 61021 10800.00000 0 8228262.789 -9088839.789 22388588.383 10 0 61021 11700.00000 0 10883955.788 -8613447.611 21419497.554 10 0 61021 12600.00000 0 13423803.563 -8349388.216 20035175.160 10 0 61021 13500.00000 0 15782589.095 -8281082.525 18262326.763 10 0 61021 14400.00000 0 17900571.399 -8381776.253 16135200.177 10 0 61021 15300.00000 0 19725777.054 -8614812.603 13694935.969 10 0 61021 16200.00000 0 21215982.980 -8935336.188 10988782.957 10 0 61021 17100.00000 0 22340307.776 -9292357.137 8069192.582 10 0 61021 18000.00000 0 23080344.795 -9631088.807 4992808.708 10 0 61021 18900.00000 0 23430788.884 -9895460.586 1819371.756 10 0 61021 19800.00000 0 23399529.850 -10030699.288 -1389441.839 10 0 61021 20700.00000 0 23007207.953 -9985869.244 -4571222.096 10 0 61021 21600.00000 0 22286249.628 -9716262.413 -7664045.953 10 0 61021 22500.00000 0 21279423.671 -9185535.814 -10607691.165 10 0 61021 23400.00000 0 20037978.745 -8367504.021 -13344818.894 10 0 61021 24300.00000 0 18619440.959 -7247508.973 -15822100.875 10 0 61021 25200.00000 0 17085164.865 -5823307.254 -17991268.115 10 0 61021 26100.00000 0 15497741.815 -4105435.559 -19810059.748 10 0 61021 27000.00000 0 13918375.549 -2117037.296 -21243052.870 10 0 61021 27900.00000 0 12404336.207 106843.759 -22262356.731 10 0 61021 28800.00000 0 11006600.397 2520474.183 -22848157.567 10 0 61021 29700.00000 0 9767776.766 5069095.990 -22989103.507 10 0 61021 30600.00000 0 8720404.178 7690976.948 -22682522.288 10 0 61021 31500.00000 0 7885693.519 10319760.649 -21934467.899 10 0 61021 32400.00000 0 7272765.188 12887018.378 -20759595.701 10 0 61021 33300.00000 0 6878413.127 15324896.387 -19180868.931 10 0 61021 34200.00000 0 6687403.920 17568748.193 -17229102.806 10 0 61021 35100.00000 0 6673296.803 19559642.349 -14942355.641 10 0 61021 36000.00000 0 6799748.373 21246641.420 -12365179.318 10 0 61021 36900.00000 0 7022245.405 22588757.609 -9547744.260 10 0 61021 37800.00000 0 7290191.172 23556504.213 -6544856.486 10 0 61021 38700.00000 0 7549255.885 24132979.185 -3414886.373 10 0 61021 39600.00000 0 7743890.917 24314436.783 -218630.551 10 0 61021 40500.00000 0 7819899.839 24110324.877 2981870.568 10 0 61021 41400.00000 0 7726957.149 23542787.926 6124536.307 10 0 61021 42300.00000 0 7420968.100 22645657.900 9148446.778 10 0 61021 43200.00000 0 6866170.013 21462976.792 11995018.275 10 0 61021 44100.00000 0 6036886.556 20047113.582 14609130.591 10 0 61021 45000.00000 0 4918861.211 18456555.185 16940185.013 10 0 61021 45900.00000 0 3510113.851 16753463.997 18943073.404 10 0 61021 46800.00000 0 1821284.200 15001103.925 20579040.667 10 0 61021 47700.00000 0 -124552.752 13261241.818 21816425.022 10 0 61021 48600.00000 0 -2292592.608 11591631.803 22631262.906 10 0 61021 49500.00000 0 -4637500.577 10043686.282 23007747.767 10 0 61021 50400.00000 0 -7105055.277 8660429.502 22938534.572 10 0 61021 51300.00000 0 -9634170.852 7474817.814 22424884.465 10 0 61021 52200.00000 0 -12159215.322 6508495.689 21476646.744 10 0 61021 53100.00000 0 -14612530.803 5771038.682 20112077.972 10 0 61021 54000.00000 0 -16927052.673 5259714.574 18357500.829 10 0 61021 54900.00000 0 -19038920.272 4959772.612 16246808.141 10 0 61021 55800.00000 0 -20889971.555 4845248.937 13820820.268 10 0 61021 56700.00000 0 -22430018.350 4880254.793 11126506.918 10 0 61021 57600.00000 0 -23618807.394 5020693.792 8216087.113 10 0 61021 58500.00000 0 -24427584.806 5216336.276 5146023.738 10 0 61021 59400.00000 0 -24840197.861 5413163.401 1975931.450 10 0 61021 60300.00000 0 -24853686.917 5555881.735 -1232581.150 10 0 61021 61200.00000 0 -24478341.693 5590501.432 -4417112.424 10 0 61021 62100.00000 0 -23737218.631 5466867.896 -7515687.812 10 0 61021 63000.00000 0 -22665138.948 5141038.349 -10467974.589 10 0 61021 63900.00000 0 -21307209.158 4577401.052 -13216466.545 10 0 61021 64800.00000 0 -19716926.275 3750445.629 -15707614.388 10 0 61021 65700.00000 0 -17953947.668 2646107.702 -17892878.791 10 0 61021 66600.00000 0 -16081619.900 1262629.166 -19729684.611 10 0 61021 67500.00000 0 -14164371.067 -389103.880 -21182256.962 10 0 61021 68400.00000 0 -12265076.828 -2285761.331 -22222322.420 10 0 61021 69300.00000 0 -10442511.272 -4392300.154 -22829661.469 10 0 61021 70200.00000 0 -8748989.872 -6663196.596 -22992501.466 10 0 61021 71100.00000 0 -7228303.353 -9044128.520 -22707742.700 10 0 61021 72000.00000 0 -5914028.740 -11474037.790 -21981013.479 10 0 61021 72900.00000 0 -4828287.587 -13887486.647 -20826553.624 10 0 61021 73800.00000 0 -3981002.315 -16217209.670 -19266929.121 10 0 61021 74700.00000 0 -3369680.367 -18396754.694 -17332583.981 10 0 61021 75600.00000 0 -2979733.498 -20363102.413 -15061238.582 10 0 61021 76500.00000 0 -2785316.905 -22059155.398 -12497146.682 10 0 61021 77400.00000 0 -2750650.916 -23435992.769 -9690226.141 10 0 61021 78300.00000 0 -2831767.745 -24454796.813 -6695080.792 10 0 61021 79200.00000 0 -2978607.915 -25088371.661 -3569933.037 10 0 61021 80100.00000 0 -3137376.458 -25322191.455 -375488.456 10 0 61021 81000.00000 0 -3253058.243 -25154935.242 2826245.046 10 0 61021 81900.00000 0 -3271985.405 -24598487.473 5973160.328 10 0 61021 82800.00000 0 -3144347.933 -23677405.341 9004252.759 10 0 61021 83700.00000 0 -2826541.256 -22427876.446 11860797.429 10 0 61021 84600.00000 0 -2283251.797 -20896211.392 14487479.356 10 0 61021 85500.00000 0 -1489192.711 -19136935.014 16833455.364 10 0 61022 0.00000 0 -430416.968 -17210556.470 18853327.780 10 0 61022 900.00000 0 894848.089 -15181110.106 20508013.198 10 0 61022 1800.00000 0 2475878.554 -13113571.705 21765487.964 10 0 61022 2700.00000 0 4289660.206 -11071253.480 22601400.722 10 0 61022 3600.00000 0 6301614.277 -9113287.617 22999538.353 10 0 61022 4500.00000 0 8466814.390 -7292300.798 22952138.151 10 0 61022 5400.00000 0 10731645.610 -5652375.292 22460040.372 10 0 61022 6300.00000 0 13035838.465 -4227380.219 21532678.133 10 0 61022 7200.00000 0 15314795.219 -3039741.490 20187904.400 10 0 61022 8100.00000 0 17502113.495 -2099700.953 18451658.526 10 0 61022 9000.00000 0 19532203.797 -1405095.245 16357477.599 10 0 61022 9900.00000 0 21342893.078 -941663.484 13945860.726 10 0 61022 10800.00000 0 22877906.529 -683871.004 11263497.127 10 0 61022 11700.00000 0 24089124.177 -596214.771 8362371.669 10 0 61022 12600.00000 0 24938517.609 -634955.826 5298764.155 10 0 61022 13500.00000 0 25399685.038 -750205.823 2132161.021 10 0 61022 14400.00000 0 25458919.274 -888279.488 -1075899.728 10 0 61022 15300.00000 0 25115762.602 -994213.084 -4263027.794 10 0 61022 16200.00000 0 24383024.019 -1014341.528 -7367200.234 10 0 61022 17100.00000 0 23286257.072 -898823.867 -10327976.976 10 0 61022 18000.00000 0 21862719.413 -604008.705 -13087687.458 10 0 61022 18900.00000 0 20159857.389 -94537.734 -15592564.200 10 0 61022 19800.00000 0 18233379.192 654903.443 -17793800.145 10 0 61022 20700.00000 0 16144997.736 1658263.045 -19648508.200 10 0 61022 21600.00000 0 13959938.412 2917286.909 -21120563.539 10 0 61022 22500.00000 0 11744316.775 4421205.176 -22181311.823 10 0 61022 23400.00000 0 9562496.592 6146956.281 -22810129.235 10 0 61022 24300.00000 0 7474539.262 8059939.855 -22994823.498 10 0 61022 25200.00000 0 5533851.437 10115267.601 -22731868.244 10 0 61022 26100.00000 0 3785129.061 12259460.115 -22026466.514 10 0 61022 27000.00000 0 2262683.203 14432518.756 -20892442.612 10 0 61022 27900.00000 0 989216.654 16570285.879 -19351964.878 10 0 61022 28800.00000 0 -24898.860 18606994.564 -17435105.314 10 0 61022 29700.00000 0 -781816.350 20477901.056 -15179245.140 10 0 61022 30600.00000 0 -1295871.977 22121889.747 -12628338.361 10 0 61022 31500.00000 0 -1592724.667 23483941.690 -9832048.258 10 0 61022 32400.00000 0 -1708015.235 24517363.522 -6844774.118 10 0 61022 33300.00000 0 -1685603.483 25185683.886 -3724587.686 10 0 61022 34200.00000 0 -1575459.397 25464138.478 -532100.566 10 0 61022 35100.00000 0 -1431298.884 25340682.325 2670714.961 10 0 61022 36000.00000 0 -1308064.995 24816487.814 5821728.492 10 0 61022 36900.00000 0 -1259361.733 23905908.600 8859853.871 10 0 61022 37800.00000 0 -1334949.182 22635911.877 11726228.148 10 0 61022 38700.00000 0 -1578405.746 21045003.600 14365344.592 10 0 61022 39600.00000 0 -2025055.939 19181692.170 16726118.402 10 0 61022 40500.00000 0 -2700250.826 17102555.006 18762865.319 10 0 61022 41400.00000 0 -3618073.285 14869988.531 20436175.256 10 0 61022 42300.00000 0 -4780522.507 12549734.820 21713665.139 10 0 61022 43200.00000 0 -6177212.291 10208286.979 22570597.545 10 0 61022 44100.00000 0 -7785596.460 7910279.935 22990354.135 10 0 61022 45000.00000 0 -9571713.095 5715973.756 22964755.459 10 0 61022 45900.00000 0 -11491417.963 3678932.568 22494221.326 10 0 61022 46800.00000 0 -13492057.442 1843994.094 21587768.601 10 0 61022 47700.00000 0 -15514513.049 245613.023 20262846.040 10 0 61022 48600.00000 0 -17495534.213 -1093353.861 18545008.483 10 0 61022 49500.00000 0 -19370263.741 -2162370.895 16467435.574 10 0 61022 50400.00000 0 -21074851.925 -2963425.266 14070302.951 10 0 61022 51300.00000 0 -22549051.073 -3510698.972 11400016.704 10 0 61022 52200.00000 0 -23738682.368 -3829724.708 8508324.563 10 0 61022 53100.00000 0 -24597871.642 -3956061.010 5451320.016 10 0 61022 54000.00000 0 -25090959.686 -3933542.321 2288357.905 10 0 61022 54900.00000 0 -25194005.911 -3812177.874 -919097.814 10 0 61022 55800.00000 0 -24895820.822 -3645788.420 -4108671.623 10 0 61022 56700.00000 0 -24198482.481 -3489481.408 -7218295.580 10 0 61022 57600.00000 0 -23117313.828 -3397072.430 -10187425.530 10 0 61022 58500.00000 0 -21680320.600 -3418563.370 -12958229.662 10 0 61022 59400.00000 0 -19927112.562 -3597785.555 -15476725.167 10 0 61022 60300.00000 0 -17907352.797 -3970309.299 -17693839.788 10 0 61022 61200.00000 0 -15678799.969 -4561709.940 -19566376.594 10 0 61022 62100.00000 0 -13305025.754 -5386265.252 -21057862.434 10 0 61022 63000.00000 0 -10852903.376 -6446140.678 -22139263.083 10 0 61022 63900.00000 0 -8389972.762 -7731097.932 -22789550.859 10 0 61022 64800.00000 0 -5981792.874 -9218740.226 -22996113.681 10 0 61022 65700.00000 0 -3689391.991 -10875284.466 -22754997.804 10 0 61022 66600.00000 0 -1566922.398 -12656828.398 -22070979.796 10 0 61022 67500.00000 0 340383.040 -14511059.669 -20957466.836 10 0 61022 68400.00000 0 1997867.938 -16379335.123 -19436227.697 10 0 61022 69300.00000 0 3382655.030 -18199042.956 -17536960.207 10 0 61022 70200.00000 0 4484345.743 -19906148.509 -15296704.097 10 0 61022 71100.00000 0 5305189.344 -21437816.750 -12759111.187 10 0 61022 72000.00000 0 5859716.686 -22735001.334 -9973587.684 10 0 61022 72900.00000 0 6173856.183 -23744891.613 -6994325.816 10 0 61022 73800.00000 0 6283571.390 -24423115.133 -3879244.182 10 0 61022 74700.00000 0 6233079.584 -24735603.455 -688857.969 10 0 61022 75600.00000 0 6072728.229 -24660043.585 2514898.537 10 0 61022 76500.00000 0 5856620.303 -24186854.708 5669873.964 10 0 61022 77400.00000 0 5640089.759 -23319650.038 8714902.822 10 0 61022 78300.00000 0 5477134.263 -22075165.134 11590986.187 10 0 61022 79200.00000 0 5417913.770 -20482656.333 14242427.512 10 0 61022 80100.00000 0 5506420.361 -18582794.906 16617902.129 10 0 61022 81000.00000 0 5778417.245 -16426103.316 18671440.579 10 0 61022 81900.00000 0 6259733.326 -14070998.583 20363307.765 10 0 61022 82800.00000 0 6964984.775 -11581523.788 21660762.036 10 0 61022 83700.00000 0 7896777.251 -9024861.123 22538680.649 10 0 61022 84600.00000 0 9045422.496 -6468728.648 22980040.502 10 0 61022 85500.00000 0 10389181.844 -3978767.415 22976245.567 10 0 61023 0.00000 0 11895027.410 -1616026.039 22527295.171 10 0 61023 900.00000 0 13519891.384 565355.663 21641789.514 10 0 61023 1800.00000 0 15212350.861 2520166.084 20336772.608 10 0 61023 2700.00000 0 16914682.282 4213765.765 18637414.040 10 0 61023 3600.00000 0 18565199.377 5623285.203 16576535.061 10 0 61023 4500.00000 0 20100779.127 6738328.455 14193986.704 10 0 61023 5400.00000 0 21459471.016 7561153.273 11535890.565 10 0 61023 6300.00000 0 22583080.936 8106320.299 8653755.631 10 0 61023 7200.00000 0 23419621.441 8399825.981 5603487.213 10 0 61023 8100.00000 0 23925525.023 8477755.571 2444306.427 10 0 61023 9000.00000 0 24067526.465 8384512.946 -762399.174 10 0 61023 9900.00000 0 23824133.751 8170702.151 -3954271.401 10 0 61023 10800.00000 0 23186624.074 7890750.618 -7069199.971 10 0 61023 11700.00000 0 22159521.395 7600375.365 -10046539.327 10 0 61023 12600.00000 0 20760533.868 7354000.438 -12828299.018 10 0 61023 13500.00000 0 19019952.463 7202236.216 -15360283.387 10 0 61023 14400.00000 0 16979534.985 7189528.713 -17593157.269 10 0 61023 15300.00000 0 14690921.721 7352079.814 -19483415.981 10 0 61023 16200.00000 0 12213648.822 7716127.841 -20994239.919 10 0 61023 17100.00000 0 9612842.575 8296662.384 -22096216.633 10 0 61023 18000.00000 0 6956691.219 9096628.746 -22767916.013 10 0 61023 18900.00000 0 4313800.193 10106656.378 -22996307.371 10 0 61023 19800.00000 0 1750541.371 11305323.323 -22777010.484 10 0 61023 20700.00000 0 -671493.052 12659945.843 -22114376.020 10 0 61023 21600.00000 0 -2897826.108 14127860.098 -21021394.213 10 0 61023 22500.00000 0 -4883124.267 15658141.873 -19519434.044 10 0 61023 23400.00000 0 -6592834.620 17193691.836 -17637818.509 10 0 61023 24300.00000 0 -8004364.095 18673598.374 -15413244.774 10 0 61023 25200.00000 0 -9107753.150 20035678.374 -12889061.005 10 0 61023 26100.00000 0 -9905817.733 21219088.878 -10114414.521 10 0 61023 27000.00000 0 -10413755.790 22166899.625 -7143288.366 10 0 61023 27900.00000 0 -10658237.101 22828518.273 -4033445.609 10 0 61023 28800.00000 0 -10676016.863 23161866.427 -845302.427 10 0 61023 29700.00000 0 -10512133.426 23135215.271 2359247.645 10 0 61023 30600.00000 0 -10217767.759 22728604.042 5518035.128 10 0 61023 31500.00000 0 -9847856.228 21934782.292 8569818.130 10 0 61023 32400.00000 0 -9458558.206 20759636.896 11455464.696 10 0 61023 33300.00000 0 -9104685.748 19222086.361 14119091.368 10 0 61023 34200.00000 0 -8837203.719 17353447.176 16509136.435 10 0 61023 35100.00000 0 -8700905.418 15196298.747 18579347.920 10 0 61023 36000.00000 0 -8732361.049 12802894.016 20289668.223 10 0 61023 36900.00000 0 -8958224.826 10233181.409 21606999.388 10 0 61023 37800.00000 0 -9393971.391 7552519.456 22505835.338 10 0 61023 38700.00000 0 -10043114.422 4829177.753 22968749.852 10 0 61023 39600.00000 0 -10896940.347 2131726.521 22986731.578 10 0 61023 40500.00000 0 -11934768.909 -473578.601 22559360.038 10 0 61023 41400.00000 0 -13124730.643 -2925309.745 21694819.232 10 0 61023 42300.00000 0 -14425030.033 -5169175.264 20409748.166 10 0 61023 43200.00000 0 -15785643.010 -7160028.977 18728930.396 10 0 61023 44100.00000 0 -17150379.332 -8863497.774 16684827.472 10 0 61023 45000.00000 0 -18459224.944 -10257160.575 14316963.992 10 0 61023 45900.00000 0 -19650867.354 -11331229.895 11671174.773 10 0 61023 46800.00000 0 -20665298.877 -12088707.711 8798727.380 10 0 61023 47700.00000 0 -21446388.711 -12545009.047 5755335.954 10 0 61023 48600.00000 0 -21944315.428 -12727068.980 2600084.657 10 0 61023 49500.00000 0 -22117756.775 -12671970.534 -605718.758 10 0 61023 50400.00000 0 -21935743.276 -12425151.347 -3799736.922 10 0 61023 51300.00000 0 -21379095.995 -12038265.061 -6919820.732 10 0 61023 52200.00000 0 -20441386.097 -11566788.361 -9905226.733 10 0 61023 53100.00000 0 -19129373.978 -11067475.667 -12697809.253 10 0 61023 54000.00000 0 -17462907.825 -10595770.235 -15243163.020 10 0 61023 54900.00000 0 -15474284.416 -10203282.409 -17491692.930 10 0 61023 55800.00000 0 -13207097.929 -9935443.018 -19399589.123 10 0 61023 56700.00000 0 -10714624.292 -9829432.375 -20929687.625 10 0 61023 57600.00000 0 -8057808.350 -9912473.548 -22052199.257 10 0 61023 58500.00000 0 -5302937.903 -10200562.900 -22745292.327 10 0 61023 59400.00000 0 -2519101.852 -10697692.117 -22995517.727 10 0 61023 60300.00000 0 224461.412 -11395594.975 -22798068.321 10 0 61023 61200.00000 0 2861014.734 -12274029.613 -22156867.875 10 0 61023 62100.00000 0 5328861.699 -13301584.336 -21084488.209 10 0 61023 63000.00000 0 7573669.467 -14436972.737 -19601896.646 10 0 61023 63900.00000 0 9550478.839 -15630763.136 -17738039.177 10 0 61023 64800.00000 0 11225318.778 -16827469.062 -15529267.978 10 0 61023 65700.00000 0 12576359.440 -17967912.190 -13018624.935 10 0 61023 66600.00000 0 13594557.278 -18991757.754 -10254995.678 10 0 61023 67500.00000 0 14283767.236 -19840115.252 -7292151.154 10 0 61023 68400.00000 0 14660319.524 -20458094.618 -4187695.903 10 0 61023 69300.00000 0 14752080.921 -20797210.073 -1001944.070 10 0 61023 70200.00000 0 14597042.179 -20817530.475 2203254.533 10 0 61023 71100.00000 0 14241492.808 -20489485.837 5365715.184 10 0 61023 72000.00000 0 13737861.664 -19795254.307 8424122.268 10 0 61023 72900.00000 0 13142315.382 -18729671.672 11319213.234 10 0 61023 73800.00000 0 12512216.486 -17300625.493 13994919.855 10 0 61023 74700.00000 0 11903548.457 -15528917.556 16399445.183 10 0 61023 75600.00000 0 11368415.945 -13447600.316 18486256.180 10 0 61023 76500.00000 0 10952724.786 -11100814.768 20214973.832 10 0 61023 77400.00000 0 10694138.671 -8542177.519 21552144.590 10 0 61023 78300.00000 0 10620397.590 -5832783.231 22471879.406 10 0 61023 79200.00000 0 10748068.012 -3038904.108 22956348.954 10 0 61023 80100.00000 0 11081776.932 -229480.421 22996126.255 10 0 61023 81000.00000 0 11613961.869 2526495.610 22590370.508 10 0 61023 81900.00000 0 12325147.781 5162595.830 21746848.603 10 0 61023 82800.00000 0 13184740.068 7617465.293 20481793.520 10 0 61023 83700.00000 0 14152301.591 9837121.883 18819601.579 10 0 61023 84600.00000 0 15179261.496 11776952.159 16792373.259 10 0 61023 85500.00000 0 16210985.522 13403321.227 14439305.214 10 0 61024 0.00000 0 17189121.999 14694730.012 11805944.068 10 0 61024 900.00000 0 18054126.394 15642472.450 8943313.676 10 0 61024 1800.00000 0 18747857.387 16250763.392 5906935.250 10 0 61024 2700.00000 0 19216136.909 16536333.989 2755753.862 10 0 61024 3600.00000 0 19411164.341 16527509.553 -449004.804 10 0 61024 4500.00000 0 19293682.575 16262809.300 -3645026.557 10 0 61024 5400.00000 0 18834802.949 15789127.003 -6770125.882 10 0 61024 6300.00000 0 18017410.331 15159569.579 -9763463.783 10 0 61024 7200.00000 0 16837087.153 14431045.558 -12566741.630 10 0 61024 8100.00000 0 15302515.570 13661706.147 -15125346.656 10 0 61024 9000.00000 0 13435339.026 12908348.094 -17389425.747 10 0 61024 9900.00000 0 11269487.604 12223889.234 -19314865.618 10 0 61024 10800.00000 0 8849994.288 11655024.490 -20864159.477 10 0 61024 11700.00000 0 6231350.949 11240162.332 -22007142.791 10 0 61024 12600.00000 0 3475472.411 11007729.559 -22721583.465 10 0 61024 13500.00000 0 649353.429 10974916.498 -22993614.932 10 0 61024 14400.00000 0 -2177483.666 11146915.715 -22818003.845 10 0 61024 15300.00000 0 -4935644.227 11516686.304 -22198247.447 10 0 61024 16200.00000 0 -7558508.839 12065253.334 -21146499.145 10 0 61024 17100.00000 0 -9984763.116 12762529.308 -19683324.205 10 0 61024 18000.00000 0 -12160704.754 13568622.329 -17837290.800 10 0 61024 18900.00000 0 -14042232.483 14435575.034 -15644404.921 10 0 61024 19800.00000 0 -15596435.045 15309460.222 -13147400.640 10 0 61024 20700.00000 0 -16802715.255 16132744.025 -10394900.101 10 0 61024 21600.00000 0 -17653403.904 16846816.312 -7440460.138 10 0 61024 22500.00000 0 -18153839.744 17394581.045 -4341524.599 10 0 61024 23400.00000 0 -18321914.246 17722996.953 -1158303.318 10 0 61024 24300.00000 0 -18187102.336 17785461.207 2047400.000 10 0 61024 25200.00000 0 -17789021.732 17543935.550 5213387.851 10 0 61024 26100.00000 0 -17175583.160 16970725.456 8278273.425 10 0 61024 27000.00000 0 -16400810.547 16049837.607 11182666.163 10 0 61024 27900.00000 0 -15522423.803 14777858.817 13870315.677 10 0 61024 28800.00000 0 -14599286.260 13164319.615 16289192.379 10 0 61024 29700.00000 0 -13688824.057 11231527.150 18392484.687 10 0 61024 30600.00000 0 -12844525.463 9013874.065 20139494.553 10 0 61024 31500.00000 0 -12113624.416 6556651.507 21496415.032 10 0 61024 32400.00000 0 -11535064.598 3914414.729 22436976.025 10 0 61024 33300.00000 0 -11137828.498 1148967.906 22942946.714 10 0 61024 34200.00000 0 -10939700.781 -1672949.706 23004485.746 10 0 61024 35100.00000 0 -10946517.247 -4482182.054 22620332.841 10 0 61024 36000.00000 0 -11151930.758 -7209776.432 21797838.194 10 0 61024 36900.00000 0 -11537704.179 -9789598.601 20552828.718 10 0 61024 37800.00000 0 -12074518.708 -12160836.012 18909312.979 10 0 61024 38700.00000 0 -12723264.601 -14270286.558 16899029.415 10 0 61024 39600.00000 0 -13436761.194 -16074338.624 14560845.317 10 0 61024 40500.00000 0 -14161835.019 -17540560.613 11940016.799 10 0 61024 41400.00000 0 -14841669.515 -18648833.869 9087322.769 10 0 61024 42300.00000 0 -15418327.981 -19391981.552 6058088.580 10 0 61024 43200.00000 0 -15835343.553 -19775866.841 2911117.470 10 0 61024 44100.00000 0 -16040266.619 -19818955.993 -292449.897 10 0 61024 45000.00000 0 -15987061.247 -19551364.286 -3490325.634 10 0 61024 45900.00000 0 -15638248.093 -19013424.825 -6620291.058 10 0 61024 46800.00000 0 -14966701.620 -18253840.612 -9621414.987 10 0 61024 47700.00000 0 -13957023.809 -17327498.124 -12435249.207 10 0 61024 48600.00000 0 -12606434.404 -16293035.325 -15006976.777 10 0 61024 49500.00000 0 -10925138.203 -15210267.544 -17286489.753 10 0 61024 50400.00000 0 -8936152.181 -14137580.859 -19229374.317 10 0 61024 51300.00000 0 -6674598.217 -13129403.965 -20797783.366 10 0 61024 52200.00000 0 -4186489.911 -12233866.025 -21961179.007 10 0 61024 53100.00000 0 -1527063.522 -11490740.004 -22696930.160 10 0 61024 54000.00000 0 1241277.688 -10929758.579 -22990753.600 10 0 61024 54900.00000 0 4051320.137 -10569373.673 -22836989.951 10 0 61024 55800.00000 0 6833599.391 -10416011.681 -22238709.549 10 0 61024 56700.00000 0 9519055.786 -10463855.211 -21207646.502 10 0 61024 57600.00000 0 12041675.666 -10695159.763 -19763962.677 10 0 61024 58500.00000 0 14341008.388 -11081091.021 -17935846.693 10 0 61024 59400.00000 0 16364454.682 -11583046.381 -15758956.260 10 0 61024 60300.00000 0 18069231.695 -12154403.853 -13275715.191 10 0 61024 61200.00000 0 19423933.711 -12742623.455 -10534479.379 10 0 61024 62100.00000 0 20409624.740 -13291611.429 -7588588.493 10 0 61024 63000.00000 0 21020418.871 -13744246.627 -4495322.400 10 0 61024 63900.00000 0 21263525.915 -14044961.733 -1314783.179 10 0 61024 64800.00000 0 21158762.311 -14142269.912 1891275.058 10 0 61024 65700.00000 0 20737549.700 -13991129.998 5060645.453 10 0 61024 66600.00000 0 20041444.921 -13555050.406 8131873.241 10 0 61024 67500.00000 0 19120264.591 -12807843.144 11045442.808 10 0 61024 68400.00000 0 18029884.100 -11734954.192 13744924.189 10 0 61024 69300.00000 0 16829804.084 -10334314.411 16178057.313 10 0 61024 70200.00000 0 15580586.625 -8616675.144 18297753.777 10 0 61024 71100.00000 0 14341268.475 -6605414.137 20062997.766 10 0 61024 72000.00000 0 13166859.054 -4335819.263 21439629.765 10 0 61024 72900.00000 0 12106027.098 -1853878.947 22400999.038 10 0 61024 73800.00000 0 11199071.757 785371.666 22928473.300 10 0 61024 74700.00000 0 10476261.986 3519881.611 23011796.467 10 0 61024 75600.00000 0 9956612.848 6282909.543 22649288.090 10 0 61024 76500.00000 0 9647149.278 9005549.142 21847880.664 10 0 61024 77400.00000 0 9542687.903 11619351.558 20622993.759 10 0 61024 78300.00000 0 9626146.129 14058937.806 18998246.675 10 0 61024 79200.00000 0 9869365.994 16264494.075 17005014.090 10 0 61024 80100.00000 0 10234418.895 18184047.293 14681832.040 10 0 61024 81000.00000 0 10675337.180 19775426.872 12073664.327 10 0 61024 81900.00000 0 11140200.510 21007831.105 9231042.250 10 0 61024 82800.00000 0 11573489.691 21862932.647 6209093.199 10 0 61024 83700.00000 0 11918608.933 22335476.426 3066476.151 10 0 61024 84600.00000 0 12120469.898 22433344.403 -135755.761 10 0 61024 85500.00000 0 12128027.686 22177083.872 -3335343.483 99